When you browse on this site, cookies collect data to enhance your experience and personalize the content and advertising you see.
Visit our Privacy Policy to learn more. By continuing to use the site, you agree to this use of cookies and data.
  • în România
  • Lista ţărilor
  • Pe 7 zile
  • Temperatura apei
  • Hartă satelitară
  • Meteo pe hartă
  • Widget-uri
  • user-avatar
    Intrare

    Meteo pe oră la Norwich

    Astăzi, 18 Aprilie, Joi

    Timp Temperatura Precipitaţii Vânt Presiune Umiditate
    00:00 +8°C° 0 mm 2 m/s 765 mmHg 92%
    01:00 +8°C° 0 mm 2 m/s 765 mmHg 93%
    02:00 +8°C° 0 mm 2 m/s 765 mmHg 93%
    03:00 +8°C° 0 mm 2 m/s 765 mmHg 93%
    04:00 +9°C° 0 mm 3 m/s 765 mmHg 92%
    05:00 +9°C° 0 mm 3 m/s 765 mmHg 91%
    06:00 +9°C° 0 mm 3 m/s 765 mmHg 88%
    07:00 +11°C° 0 mm 4 m/s 766 mmHg 82%
    08:00 +13°C° 0 mm 4 m/s 766 mmHg 76%
    09:00 +14°C° 0 mm 5 m/s 766 mmHg 70%
    10:00 +15°C° 0 mm 5 m/s 766 mmHg 67%
    11:00 +15°C° 0 mm 5 m/s 766 mmHg 65%
    12:00 +16°C° 0 mm 5 m/s 766 mmHg 62%
    13:00 +16°C° 0 mm 5 m/s 766 mmHg 61%
    14:00 +17°C° 0 mm 5 m/s 766 mmHg 60%
    15:00 +17°C° 0 mm 6 m/s 766 mmHg 60%
    16:00 +16°C° 0 mm 5 m/s 766 mmHg 63%
    17:00 +15°C° 0 mm 5 m/s 767 mmHg 66%
    18:00 +14°C° 0 mm 5 m/s 767 mmHg 69%
    19:00 +13°C° 0 mm 5 m/s 767 mmHg 70%
    20:00 +12°C° 0 mm 5 m/s 768 mmHg 72%
    21:00 +10°C° 0 mm 5 m/s 768 mmHg 74%
    22:00 +10°C° 0 mm 5 m/s 768 mmHg 76%
    23:00 +10°C° 0 mm 5 m/s 768 mmHg 77%

    Mâine, 19 Aprilie, Vineri

    Timp Temperatura Precipitaţii Vânt Presiune Umiditate
    00:00 +11°C° 0 mm 4 m/s 769 mmHg 79%
    01:00 +10°C° 0 mm 4 m/s 769 mmHg 80%
    02:00 +10°C° 0 mm 4 m/s 769 mmHg 82%
    03:00 +8°C° 0 mm 4 m/s 769 mmHg 83%
    04:00 +10°C° 0 mm 4 m/s 769 mmHg 84%
    05:00 +10°C° 0 mm 4 m/s 769 mmHg 84%
    06:00 +10°C° 0 mm 3 m/s 769 mmHg 84%
    07:00 +11°C° 0 mm 4 m/s 770 mmHg 78%
    08:00 +13°C° 0 mm 4 m/s 770 mmHg 73%
    09:00 +15°C° 0 mm 4 m/s 770 mmHg 68%
    10:00 +15°C° 0 mm 5 m/s 770 mmHg 65%
    11:00 +16°C° 0 mm 5 m/s 770 mmHg 62%
    12:00 +17°C° 0 mm 5 m/s 770 mmHg 60%
    13:00 +18°C° 0 mm 4 m/s 770 mmHg 61%
    14:00 +17°C° 0 mm 4 m/s 770 mmHg 61%
    15:00 +17°C° 0 mm 4 m/s 770 mmHg 62%
    16:00 +15°C° 0 mm 4 m/s 770 mmHg 67%
    17:00 +14°C° 0 mm 4 m/s 770 mmHg 72%
    18:00 +13°C° 0 mm 3 m/s 770 mmHg 76%
    19:00 +12°C° 0 mm 3 m/s 770 mmHg 79%
    20:00 +11°C° 0 mm 3 m/s 771 mmHg 82%
    21:00 +10°C° 0 mm 3 m/s 771 mmHg 85%
    22:00 +10°C° 0 mm 3 m/s 771 mmHg 86%
    23:00 +10°C° 0 mm 3 m/s 771 mmHg 88%

    Poimâine, 20 Aprilie, Sâmbătă

    Timp Temperatura Precipitaţii Vânt Presiune Umiditate
    00:00 +9°C° 0 mm 3 m/s 771 mmHg 90%
    01:00 +9°C° 0 mm 3 m/s 771 mmHg 90%
    02:00 +9°C° 0 mm 3 m/s 770 mmHg 90%
    03:00 +9°C° 0 mm 3 m/s 770 mmHg 90%
    04:00 +10°C° 0 mm 3 m/s 770 mmHg 88%
    05:00 +10°C° 0 mm 2 m/s 770 mmHg 87%
    06:00 +10°C° 0 mm 2 m/s 770 mmHg 86%
    07:00 +12°C° 0 mm 3 m/s 770 mmHg 80%
    08:00 +14°C° 0 mm 3 m/s 771 mmHg 74%
    09:00 +17°C° 0 mm 4 m/s 771 mmHg 68%
    10:00 +18°C° 0 mm 4 m/s 770 mmHg 64%
    11:00 +18°C° 0 mm 4 m/s 770 mmHg 61%
    12:00 +19°C° 0 mm 4 m/s 770 mmHg 57%
    13:00 +19°C° 0 mm 4 m/s 770 mmHg 58%
    14:00 +19°C° 0 mm 4 m/s 770 mmHg 58%
    15:00 +19°C° 0 mm 4 m/s 769 mmHg 59%
    16:00 +17°C° 0 mm 3 m/s 769 mmHg 64%
    17:00 +16°C° 0 mm 3 m/s 769 mmHg 69%
    18:00 +13°C° 0 mm 3 m/s 769 mmHg 74%
    19:00 +12°C° 0 mm 3 m/s 769 mmHg 77%
    20:00 +11°C° 0 mm 3 m/s 769 mmHg 80%
    21:00 +9°C° 0 mm 2 m/s 769 mmHg 82%
    22:00 +9°C° 0 mm 2 m/s 769 mmHg 84%
    23:00 +9°C° 0 mm 2 m/s 768 mmHg 85%

    21 Aprilie, Duminică

    Timp Temperatura Precipitaţii Vânt Presiune Umiditate
    00:00 +9°C° 0 mm 2 m/s 768 mmHg 86%
    01:00 +9°C° 0 mm 2 m/s 768 mmHg 87%
    02:00 +9°C° 0 mm 2 m/s 767 mmHg 88%
    03:00 +9°C° 0 mm 2 m/s 767 mmHg 89%
    04:00 +9°C° 0 mm 2 m/s 766 mmHg 87%
    05:00 +9°C° 0 mm 2 m/s 766 mmHg 86%
    06:00 +10°C° 0 mm 2 m/s 766 mmHg 84%
    07:00 +13°C° 0 mm 2 m/s 766 mmHg 77%
    08:00 +13°C° 0 mm 3 m/s 765 mmHg 69%
    09:00 +16°C° 0 mm 3 m/s 765 mmHg 62%
    10:00 +17°C° 0 mm 3 m/s 765 mmHg 58%
    11:00 +18°C° 0 mm 3 m/s 764 mmHg 54%
    12:00 +18°C° 0 mm 3 m/s 764 mmHg 51%
    13:00 +18°C° 0 mm 3 m/s 763 mmHg 51%
    14:00 +18°C° 0 mm 4 m/s 763 mmHg 51%
    15:00 +17°C° 0 mm 4 m/s 762 mmHg 51%
    16:00 +16°C° 0 mm 3 m/s 762 mmHg 56%
    17:00 +14°C° 0 mm 3 m/s 761 mmHg 62%
    18:00 +12°C° 0 mm 3 m/s 761 mmHg 67%
    19:00 +11°C° 0 mm 3 m/s 761 mmHg 70%
    20:00 +9°C° 0 mm 2 m/s 761 mmHg 72%
    21:00 +8°C° 0 mm 2 m/s 761 mmHg 75%
    22:00 +8°C° 0 mm 2 m/s 760 mmHg 77%
    23:00 +8°C° 0 mm 2 m/s 760 mmHg 79%

    22 Aprilie, Luni

    Timp Temperatura Precipitaţii Vânt Presiune Umiditate
    00:00 +8°C° 0 mm 2 m/s 760 mmHg 81%
    01:00 +8°C° 0 mm 2 m/s 759 mmHg 82%
    02:00 +8°C° 0 mm 2 m/s 759 mmHg 83%
    03:00 +8°C° 0 mm 2 m/s 758 mmHg 84%
    04:00 +9°C° 0 mm 2 m/s 758 mmHg 82%
    05:00 +9°C° 0 mm 2 m/s 758 mmHg 81%
    06:00 +10°C° 0 mm 2 m/s 758 mmHg 79%
    07:00 +13°C° 0 mm 2 m/s 757 mmHg 73%
    08:00 +14°C° 0 mm 3 m/s 757 mmHg 66%
    09:00 +17°C° 0 mm 3 m/s 757 mmHg 60%
    10:00 +17°C° 0 mm 4 m/s 757 mmHg 58%
    11:00 +18°C° 0 mm 4 m/s 757 mmHg 55%
    12:00 +19°C° 0 mm 4 m/s 756 mmHg 53%
    13:00 +18°C° 0 mm 4 m/s 756 mmHg 55%
    14:00 +18°C° 0 mm 4 m/s 755 mmHg 57%
    15:00 +18°C° 0 mm 4 m/s 755 mmHg 58%
    16:00 +17°C° 0 mm 4 m/s 755 mmHg 63%
    17:00 +15°C° 0 mm 4 m/s 755 mmHg 68%
    18:00 +14°C° 0 mm 3 m/s 754 mmHg 73%
    19:00 +12°C° 0 mm 3 m/s 754 mmHg 75%
    20:00 +11°C° 0 mm 3 m/s 754 mmHg 78%
    21:00 +10°C° 0 mm 3 m/s 754 mmHg 80%
    22:00 +10°C° 0 mm 4 m/s 754 mmHg 81%
    23:00 +10°C° 0 mm 4 m/s 754 mmHg 81%

    23 Aprilie, Marţi

    Timp Temperatura Precipitaţii Vânt Presiune Umiditate
    00:00 +11°C° 0 mm 4 m/s 754 mmHg 81%
    01:00 +10°C° 0 mm 4 m/s 754 mmHg 81%
    02:00 +10°C° 0 mm 4 m/s 754 mmHg 81%
    03:00 +9°C° 0 mm 5 m/s 753 mmHg 81%
    04:00 +9°C° 0 mm 5 m/s 753 mmHg 81%
    05:00 +9°C° 0 mm 5 m/s 753 mmHg 80%
    06:00 +9°C° 0 mm 5 m/s 753 mmHg 79%
    07:00 +10°C° 0 mm 6 m/s 754 mmHg 75%
    08:00 +11°C° 0 mm 6 m/s 754 mmHg 71%
    09:00 +13°C° 0 mm 6 m/s 754 mmHg 67%
    10:00 +13°C° 0 mm 6 m/s 754 mmHg 65%
    11:00 +14°C° 0 mm 6 m/s 754 mmHg 62%
    12:00 +14°C° 0 mm 6 m/s 754 mmHg 60%
    13:00 +14°C° 0 mm 5 m/s 754 mmHg 59%
    14:00 +14°C° 0 mm 5 m/s 754 mmHg 59%
    15:00 +14°C° 0 mm 5 m/s 754 mmHg 59%
    16:00 +13°C° 0 mm 5 m/s 754 mmHg 65%
    17:00 +10°C° 0 mm 5 m/s 754 mmHg 71%
    18:00 +10°C° 0 mm 4 m/s 754 mmHg 77%
    19:00 +8°C° 0 mm 4 m/s 755 mmHg 83%
    20:00 +8°C° 0 mm 3 m/s 755 mmHg 90%
    21:00 +7°C° 0 mm 3 m/s 756 mmHg 96%
    22:00 +7°C° 0 mm 3 m/s 756 mmHg 96%
    23:00 +7°C° 0 mm 2 m/s 756 mmHg 95%
    Arată mai mult